Tracking 29892 objects as of 21-Nov-2024
HD Live streaming from Space Station
objects crossing your sky now

DELTA 1 DEB

Track DELTA 1 DEB now!
10-day predictions


NORAD ID: 42564
Int'l Code: 1972-058JX
Perigee: 784.7 km
Apogee: 887.7 km
Inclination: 99.0 °
Period: 101.5 minutes
Semi major axis: 7207 km
RCS: Unknown
Launch date: July 23, 1972
Source: United States (US)
Launch site: AIR FORCE WESTERN TEST RANGE (AFWTR)

Note: This is SATELLITE DEBRIS
Your satellite tracking list
Your tracking list is empty




NASA's NSSDC Master Catalog

Two Line Element Set (TLE):
1 42564U 72058JX  24315.10049799  .00057143  00000-0  26554-1 0  9990
2 42564  99.0304 255.6573 0071437  20.0069 352.5593 14.18902874558712
Source of the keplerian elements: AFSPC